TimeEDT,TemperatureF,Dew PointF,Humidity,Sea Level PressureIn,VisibilityMPH,Wind Direction,Wind SpeedMPH,Gust SpeedMPH,PrecipitationIn,Events,Conditions,WindDirDegrees,DateUTC
12:00 AM,44.6,41.0,87,29.89,25.0,SW,6.9,-,N/A,,Partly Cloudy,230,2012-10-07 04:00:00
1:00 AM,44.6,41.0,87,29.91,25.0,West,5.8,-,N/A,,Scattered Clouds,260,2012-10-07 05:00:00
2:00 AM,42.8,39.2,87,29.93,25.0,WSW,5.8,-,N/A,,Partly Cloudy,240,2012-10-07 06:00:00
3:00 AM,41.0,39.2,93,29.95,25.0,West,2.3,-,N/A,,Clear,260,2012-10-07 07:00:00
4:00 AM,39.2,37.4,93,29.96,25.0,SW,3.5,-,N/A,,Clear,230,2012-10-07 08:00:00
5:00 AM,39.2,37.4,93,29.99,25.0,SW,3.5,-,N/A,,Clear,220,2012-10-07 09:00:00
6:00 AM,37.4,37.4,100,30.02,25.0,WSW,2.3,-,N/A,,Mostly Cloudy,250,2012-10-07 10:00:00
7:00 AM,37.4,35.6,93,30.05,45.0,West,4.6,-,N/A,,Mostly Cloudy,260,2012-10-07 11:00:00
8:00 AM,37.4,35.6,93,30.05,45.0,SW,3.5,-,N/A,,Mostly Cloudy,230,2012-10-07 12:00:00
9:00 AM,41.0,35.6,81,30.06,45.0,WNW,4.6,-,N/A,,Scattered Clouds,300,2012-10-07 13:00:00
10:00 AM,42.8,37.4,81,30.05,45.0,Calm,Calm,-,N/A,,Mostly Cloudy,0,2012-10-07 14:00:00
11:00 AM,44.6,33.8,66,30.06,45.0,WSW,8.1,-,N/A,,Mostly Cloudy,240,2012-10-07 15:00:00
12:00 PM,48.2,35.6,62,30.06,45.0,SW,9.2,-,N/A,,Mostly Cloudy,220,2012-10-07 16:00:00
1:00 PM,48.2,33.8,58,30.06,45.0,WSW,9.2,18.4,N/A,,Mostly Cloudy,250,2012-10-07 17:00:00
2:00 PM,48.2,33.8,58,30.06,45.0,WSW,9.2,20.7,N/A,,Mostly Cloudy,250,2012-10-07 18:00:00
3:00 PM,48.2,30.2,50,30.04,45.0,WSW,11.5,20.7,N/A,,Mostly Cloudy,250,2012-10-07 19:00:00
4:00 PM,48.2,32.0,54,30.04,45.0,West,5.8,-,N/A,,Mostly Cloudy,260,2012-10-07 20:00:00
5:00 PM,48.2,30.2,50,30.04,45.0,SW,4.6,-,N/A,,Mostly Cloudy,230,2012-10-07 21:00:00
6:00 PM,46.4,30.2,53,30.05,45.0,WSW,3.5,-,N/A,,Mostly Cloudy,240,2012-10-07 22:00:00
7:00 PM,42.8,30.2,61,30.06,25.0,WSW,2.3,-,N/A,,Mostly Cloudy,250,2012-10-07 23:00:00
8:00 PM,42.8,32.0,66,30.06,25.0,Calm,Calm,-,N/A,,Mostly Cloudy,0,2012-10-08 00:00:00
9:00 PM,41.0,32.0,70,30.07,25.0,WNW,3.5,-,N/A,,Mostly Cloudy,290,2012-10-08 01:00:00
10:00 PM,39.2,33.8,81,30.08,25.0,Calm,Calm,-,N/A,,Mostly Cloudy,0,2012-10-08 02:00:00
11:00 PM,41.0,33.8,76,30.08,25.0,North,3.5,-,N/A,,Mostly Cloudy,350,2012-10-08 03:00:00